TimePDT,TemperatureF,Dew PointF,Humidity,Sea Level PressureIn,VisibilityMPH,Wind Direction,Wind SpeedMPH,Gust SpeedMPH,PrecipitationIn,Events,Conditions,WindDirDegrees,DateUTC
12:56 AM,69.1,53.1,57,30.01,10.0,WNW,6.9,-,N/A,,Clear,290,2013-06-30 07:56:00
1:56 AM,66.9,52.0,59,30.00,10.0,WNW,5.8,-,N/A,,Clear,290,2013-06-30 08:56:00
2:56 AM,64.9,52.0,63,30.00,10.0,West,5.8,-,N/A,,Clear,280,2013-06-30 09:56:00
3:56 AM,57.9,51.1,78,30.00,10.0,SSW,3.5,-,N/A,,Clear,200,2013-06-30 10:56:00
4:56 AM,55.0,50.0,83,30.01,10.0,SSE,3.5,-,N/A,,Clear,150,2013-06-30 11:56:00
5:56 AM,57.0,51.1,81,30.01,10.0,South,3.5,-,N/A,,Clear,190,2013-06-30 12:56:00
6:56 AM,64.0,53.1,67,30.01,10.0,SSE,3.5,-,N/A,,Clear,150,2013-06-30 13:56:00
7:56 AM,70.0,52.0,53,30.01,10.0,Calm,Calm,-,N/A,,Clear,0,2013-06-30 14:56:00
8:56 AM,73.9,51.1,45,30.00,10.0,Variable,3.5,-,N/A,,Clear,0,2013-06-30 15:56:00
9:56 AM,79.0,52.0,39,29.98,10.0,Variable,3.5,-,N/A,,Clear,0,2013-06-30 16:56:00
10:56 AM,84.9,53.1,33,29.96,10.0,North,9.2,-,N/A,,Clear,360,2013-06-30 17:56:00
11:56 AM,88.0,53.1,30,29.94,10.0,NNW,6.9,-,N/A,,Clear,340,2013-06-30 18:56:00
12:56 PM,90.0,53.1,28,29.91,10.0,North,11.5,16.1,N/A,,Clear,350,2013-06-30 19:56:00
1:56 PM,93.0,52.0,25,29.89,10.0,NW,13.8,19.6,N/A,,Clear,320,2013-06-30 20:56:00
2:56 PM,95.0,53.1,24,29.87,10.0,NNW,15.0,20.7,N/A,,Clear,330,2013-06-30 21:56:00
3:56 PM,97.0,52.0,22,29.86,10.0,NNW,18.4,23.0,N/A,,Clear,340,2013-06-30 22:56:00
4:56 PM,96.1,51.1,22,29.84,10.0,NNW,17.3,26.5,N/A,,Clear,340,2013-06-30 23:56:00
5:56 PM,96.1,51.1,22,29.83,10.0,NNW,15.0,-,N/A,,Clear,340,2013-07-01 00:56:00
6:56 PM,93.0,54.0,27,29.82,10.0,North,17.3,24.2,N/A,,Clear,350,2013-07-01 01:56:00
7:56 PM,90.0,54.0,29,29.83,10.0,North,16.1,-,N/A,,Clear,10,2013-07-01 02:56:00
8:56 PM,86.0,54.0,33,29.86,10.0,North,10.4,-,N/A,,Clear,360,2013-07-01 03:56:00
9:56 PM,84.0,55.0,37,29.88,10.0,North,10.4,-,N/A,,Clear,360,2013-07-01 04:56:00
10:56 PM,78.1,55.9,46,29.88,10.0,NW,6.9,-,N/A,,Clear,320,2013-07-01 05:56:00
11:56 PM,77.0,55.0,47,29.88,10.0,NNW,8.1,-,N/A,,Clear,330,2013-07-01 06:56:00